<?xml version="1.0"?>
<gpx xmlns="http://www.topografix.com/GPX/1/1" xmlns:xsi="http://www.w3.org/2001/XMLSchema-instance" version="1.1" creator="GPX RubyGem 1.0.0 -- http://dougfales.github.io/gpx/" xsi:schemaLocation="http://www.topografix.com/GPX/1/1 http://www.topografix.com/GPX/1/1/gpx.xsd">
  <metadata>
    <name/>
    <time>2026-05-08T07:08:38+00:00</time>
    <bound minlat="90.0" minlon="180.0" maxlat="-90.0" maxlon="-180.0"/>
  </metadata>
  <trk>
    <name/>
    <trkseg>
      <trkpt lat="45.406996" lon="9.061124">
        <time>1970-01-01T00:00:00+00:00</time>
        <ele>113.0</ele>
      </trkpt>
      <trkpt lat="45.406664" lon="9.061341">
        <time>1970-01-01T00:00:00+00:00</time>
        <ele>117.0</ele>
      </trkpt>
      <trkpt lat="45.406628" lon="9.061298">
        <time>1970-01-01T00:00:00+00:00</time>
        <ele>116.0</ele>
      </trkpt>
      <trkpt lat="45.406594" lon="9.061386">
        <time>1970-01-01T00:00:00+00:00</time>
        <ele>116.0</ele>
      </trkpt>
      <trkpt lat="45.406529" lon="9.06144">
        <time>1970-01-01T00:00:00+00:00</time>
        <ele>116.0</ele>
      </trkpt>
      <trkpt lat="45.406439" lon="9.061624">
        <time>1970-01-01T00:00:00+00:00</time>
        <ele>115.0</ele>
      </trkpt>
      <trkpt lat="45.406264" lon="9.061911">
        <time>1970-01-01T00:00:00+00:00</time>
        <ele>111.0</ele>
      </trkpt>
      <trkpt lat="45.406153" lon="9.061988">
        <time>1970-01-01T00:00:00+00:00</time>
        <ele>110.0</ele>
      </trkpt>
      <trkpt lat="45.405959" lon="9.062077">
        <time>1970-01-01T00:00:00+00:00</time>
        <ele>110.0</ele>
      </trkpt>
      <trkpt lat="45.405775" lon="9.06221">
        <time>1970-01-01T00:00:00+00:00</time>
        <ele>112.0</ele>
      </trkpt>
      <trkpt lat="45.40562" lon="9.062361">
        <time>1970-01-01T00:00:00+00:00</time>
        <ele>113.0</ele>
      </trkpt>
      <trkpt lat="45.405541" lon="9.062531">
        <time>1970-01-01T00:00:00+00:00</time>
        <ele>113.0</ele>
      </trkpt>
      <trkpt lat="45.405506" lon="9.062662">
        <time>1970-01-01T00:00:00+00:00</time>
        <ele>113.0</ele>
      </trkpt>
      <trkpt lat="45.405347" lon="9.063491">
        <time>1970-01-01T00:00:00+00:00</time>
        <ele>114.0</ele>
      </trkpt>
      <trkpt lat="45.405037" lon="9.064284">
        <time>1970-01-01T00:00:00+00:00</time>
        <ele>110.0</ele>
      </trkpt>
      <trkpt lat="45.404155" lon="9.064979">
        <time>1970-01-01T00:00:00+00:00</time>
        <ele>110.0</ele>
      </trkpt>
      <trkpt lat="45.403808" lon="9.065122">
        <time>1970-01-01T00:00:00+00:00</time>
        <ele>112.0</ele>
      </trkpt>
      <trkpt lat="45.403467" lon="9.065311">
        <time>1970-01-01T00:00:00+00:00</time>
        <ele>111.0</ele>
      </trkpt>
      <trkpt lat="45.403379" lon="9.065399">
        <time>1970-01-01T00:00:00+00:00</time>
        <ele>110.0</ele>
      </trkpt>
      <trkpt lat="45.402693" lon="9.065918">
        <time>1970-01-01T00:00:00+00:00</time>
        <ele>110.0</ele>
      </trkpt>
      <trkpt lat="45.401544" lon="9.066618">
        <time>1970-01-01T00:00:00+00:00</time>
        <ele>111.0</ele>
      </trkpt>
      <trkpt lat="45.400915" lon="9.067191">
        <time>1970-01-01T00:00:00+00:00</time>
        <ele>111.0</ele>
      </trkpt>
      <trkpt lat="45.400527" lon="9.067656">
        <time>1970-01-01T00:00:00+00:00</time>
        <ele>114.0</ele>
      </trkpt>
      <trkpt lat="45.400226" lon="9.067874">
        <time>1970-01-01T00:00:00+00:00</time>
        <ele>115.0</ele>
      </trkpt>
      <trkpt lat="45.39804" lon="9.069103">
        <time>1970-01-01T00:00:00+00:00</time>
        <ele>112.0</ele>
      </trkpt>
      <trkpt lat="45.397237" lon="9.069836">
        <time>1970-01-01T00:00:00+00:00</time>
        <ele>113.0</ele>
      </trkpt>
      <trkpt lat="45.397344" lon="9.07014">
        <time>1970-01-01T00:00:00+00:00</time>
        <ele>113.0</ele>
      </trkpt>
      <trkpt lat="45.397324" lon="9.070436">
        <time>1970-01-01T00:00:00+00:00</time>
        <ele>114.0</ele>
      </trkpt>
      <trkpt lat="45.397313" lon="9.0722">
        <time>1970-01-01T00:00:00+00:00</time>
        <ele>112.0</ele>
      </trkpt>
      <trkpt lat="45.397177" lon="9.072319">
        <time>1970-01-01T00:00:00+00:00</time>
        <ele>110.0</ele>
      </trkpt>
      <trkpt lat="45.399032" lon="9.07572">
        <time>1970-01-01T00:00:00+00:00</time>
        <ele>113.0</ele>
      </trkpt>
      <trkpt lat="45.399145" lon="9.075778">
        <time>1970-01-01T00:00:00+00:00</time>
        <ele>113.0</ele>
      </trkpt>
      <trkpt lat="45.399383" lon="9.075792">
        <time>1970-01-01T00:00:00+00:00</time>
        <ele>113.0</ele>
      </trkpt>
      <trkpt lat="45.399577" lon="9.075745">
        <time>1970-01-01T00:00:00+00:00</time>
        <ele>112.0</ele>
      </trkpt>
      <trkpt lat="45.399966" lon="9.07558">
        <time>1970-01-01T00:00:00+00:00</time>
        <ele>113.0</ele>
      </trkpt>
      <trkpt lat="45.400273" lon="9.075395">
        <time>1970-01-01T00:00:00+00:00</time>
        <ele>114.0</ele>
      </trkpt>
      <trkpt lat="45.400589" lon="9.075111">
        <time>1970-01-01T00:00:00+00:00</time>
        <ele>116.0</ele>
      </trkpt>
      <trkpt lat="45.401863" lon="9.07414">
        <time>1970-01-01T00:00:00+00:00</time>
        <ele>114.0</ele>
      </trkpt>
      <trkpt lat="45.401918" lon="9.074136">
        <time>1970-01-01T00:00:00+00:00</time>
        <ele>114.0</ele>
      </trkpt>
      <trkpt lat="45.402223" lon="9.073944">
        <time>1970-01-01T00:00:00+00:00</time>
        <ele>114.0</ele>
      </trkpt>
      <trkpt lat="45.402411" lon="9.07374">
        <time>1970-01-01T00:00:00+00:00</time>
        <ele>112.0</ele>
      </trkpt>
      <trkpt lat="45.402501" lon="9.073536">
        <time>1970-01-01T00:00:00+00:00</time>
        <ele>111.0</ele>
      </trkpt>
      <trkpt lat="45.402549" lon="9.073332">
        <time>1970-01-01T00:00:00+00:00</time>
        <ele>112.0</ele>
      </trkpt>
      <trkpt lat="45.402518" lon="9.072946">
        <time>1970-01-01T00:00:00+00:00</time>
        <ele>112.0</ele>
      </trkpt>
      <trkpt lat="45.402368" lon="9.072533">
        <time>1970-01-01T00:00:00+00:00</time>
        <ele>109.0</ele>
      </trkpt>
      <trkpt lat="45.402336" lon="9.072281">
        <time>1970-01-01T00:00:00+00:00</time>
        <ele>109.0</ele>
      </trkpt>
      <trkpt lat="45.402364" lon="9.072104">
        <time>1970-01-01T00:00:00+00:00</time>
        <ele>109.0</ele>
      </trkpt>
      <trkpt lat="45.40243" lon="9.071995">
        <time>1970-01-01T00:00:00+00:00</time>
        <ele>110.0</ele>
      </trkpt>
      <trkpt lat="45.402712" lon="9.07188">
        <time>1970-01-01T00:00:00+00:00</time>
        <ele>111.0</ele>
      </trkpt>
      <trkpt lat="45.402908" lon="9.071843">
        <time>1970-01-01T00:00:00+00:00</time>
        <ele>111.0</ele>
      </trkpt>
      <trkpt lat="45.402984" lon="9.071636">
        <time>1970-01-01T00:00:00+00:00</time>
        <ele>110.0</ele>
      </trkpt>
      <trkpt lat="45.403007" lon="9.071494">
        <time>1970-01-01T00:00:00+00:00</time>
        <ele>110.0</ele>
      </trkpt>
      <trkpt lat="45.403006" lon="9.070961">
        <time>1970-01-01T00:00:00+00:00</time>
        <ele>110.0</ele>
      </trkpt>
      <trkpt lat="45.402988" lon="9.070778">
        <time>1970-01-01T00:00:00+00:00</time>
        <ele>110.0</ele>
      </trkpt>
      <trkpt lat="45.403005" lon="9.070574">
        <time>1970-01-01T00:00:00+00:00</time>
        <ele>110.0</ele>
      </trkpt>
      <trkpt lat="45.403036" lon="9.07041">
        <time>1970-01-01T00:00:00+00:00</time>
        <ele>111.0</ele>
      </trkpt>
      <trkpt lat="45.403103" lon="9.070304">
        <time>1970-01-01T00:00:00+00:00</time>
        <ele>112.0</ele>
      </trkpt>
      <trkpt lat="45.403853" lon="9.069882">
        <time>1970-01-01T00:00:00+00:00</time>
        <ele>112.0</ele>
      </trkpt>
      <trkpt lat="45.403953" lon="9.069758">
        <time>1970-01-01T00:00:00+00:00</time>
        <ele>113.0</ele>
      </trkpt>
      <trkpt lat="45.404193" lon="9.070686">
        <time>1970-01-01T00:00:00+00:00</time>
        <ele>114.0</ele>
      </trkpt>
      <trkpt lat="45.404193" lon="9.070686">
        <time>1970-01-01T00:00:00+00:00</time>
        <ele>114.0</ele>
      </trkpt>
      <trkpt lat="45.403953" lon="9.069758">
        <time>1970-01-01T00:00:00+00:00</time>
        <ele>113.0</ele>
      </trkpt>
      <trkpt lat="45.403853" lon="9.069882">
        <time>1970-01-01T00:00:00+00:00</time>
        <ele>112.0</ele>
      </trkpt>
      <trkpt lat="45.403103" lon="9.070304">
        <time>1970-01-01T00:00:00+00:00</time>
        <ele>112.0</ele>
      </trkpt>
      <trkpt lat="45.403036" lon="9.07041">
        <time>1970-01-01T00:00:00+00:00</time>
        <ele>111.0</ele>
      </trkpt>
      <trkpt lat="45.403005" lon="9.070574">
        <time>1970-01-01T00:00:00+00:00</time>
        <ele>110.0</ele>
      </trkpt>
      <trkpt lat="45.402988" lon="9.070778">
        <time>1970-01-01T00:00:00+00:00</time>
        <ele>110.0</ele>
      </trkpt>
      <trkpt lat="45.403006" lon="9.070961">
        <time>1970-01-01T00:00:00+00:00</time>
        <ele>110.0</ele>
      </trkpt>
      <trkpt lat="45.403007" lon="9.071494">
        <time>1970-01-01T00:00:00+00:00</time>
        <ele>110.0</ele>
      </trkpt>
      <trkpt lat="45.402984" lon="9.071636">
        <time>1970-01-01T00:00:00+00:00</time>
        <ele>110.0</ele>
      </trkpt>
      <trkpt lat="45.402908" lon="9.071843">
        <time>1970-01-01T00:00:00+00:00</time>
        <ele>111.0</ele>
      </trkpt>
      <trkpt lat="45.402712" lon="9.07188">
        <time>1970-01-01T00:00:00+00:00</time>
        <ele>111.0</ele>
      </trkpt>
      <trkpt lat="45.40243" lon="9.071995">
        <time>1970-01-01T00:00:00+00:00</time>
        <ele>110.0</ele>
      </trkpt>
      <trkpt lat="45.402364" lon="9.072104">
        <time>1970-01-01T00:00:00+00:00</time>
        <ele>109.0</ele>
      </trkpt>
      <trkpt lat="45.402336" lon="9.072281">
        <time>1970-01-01T00:00:00+00:00</time>
        <ele>109.0</ele>
      </trkpt>
      <trkpt lat="45.402368" lon="9.072533">
        <time>1970-01-01T00:00:00+00:00</time>
        <ele>109.0</ele>
      </trkpt>
      <trkpt lat="45.402518" lon="9.072946">
        <time>1970-01-01T00:00:00+00:00</time>
        <ele>112.0</ele>
      </trkpt>
      <trkpt lat="45.402549" lon="9.073332">
        <time>1970-01-01T00:00:00+00:00</time>
        <ele>112.0</ele>
      </trkpt>
      <trkpt lat="45.402501" lon="9.073536">
        <time>1970-01-01T00:00:00+00:00</time>
        <ele>111.0</ele>
      </trkpt>
      <trkpt lat="45.402411" lon="9.07374">
        <time>1970-01-01T00:00:00+00:00</time>
        <ele>112.0</ele>
      </trkpt>
      <trkpt lat="45.402223" lon="9.073944">
        <time>1970-01-01T00:00:00+00:00</time>
        <ele>114.0</ele>
      </trkpt>
      <trkpt lat="45.401918" lon="9.074136">
        <time>1970-01-01T00:00:00+00:00</time>
        <ele>114.0</ele>
      </trkpt>
      <trkpt lat="45.401863" lon="9.07414">
        <time>1970-01-01T00:00:00+00:00</time>
        <ele>114.0</ele>
      </trkpt>
      <trkpt lat="45.400589" lon="9.075111">
        <time>1970-01-01T00:00:00+00:00</time>
        <ele>116.0</ele>
      </trkpt>
      <trkpt lat="45.400273" lon="9.075395">
        <time>1970-01-01T00:00:00+00:00</time>
        <ele>114.0</ele>
      </trkpt>
      <trkpt lat="45.399966" lon="9.07558">
        <time>1970-01-01T00:00:00+00:00</time>
        <ele>113.0</ele>
      </trkpt>
      <trkpt lat="45.399577" lon="9.075745">
        <time>1970-01-01T00:00:00+00:00</time>
        <ele>112.0</ele>
      </trkpt>
      <trkpt lat="45.399383" lon="9.075792">
        <time>1970-01-01T00:00:00+00:00</time>
        <ele>113.0</ele>
      </trkpt>
      <trkpt lat="45.399145" lon="9.075778">
        <time>1970-01-01T00:00:00+00:00</time>
        <ele>113.0</ele>
      </trkpt>
      <trkpt lat="45.399032" lon="9.07572">
        <time>1970-01-01T00:00:00+00:00</time>
        <ele>113.0</ele>
      </trkpt>
      <trkpt lat="45.397177" lon="9.072319">
        <time>1970-01-01T00:00:00+00:00</time>
        <ele>110.0</ele>
      </trkpt>
      <trkpt lat="45.397313" lon="9.0722">
        <time>1970-01-01T00:00:00+00:00</time>
        <ele>112.0</ele>
      </trkpt>
      <trkpt lat="45.397324" lon="9.070436">
        <time>1970-01-01T00:00:00+00:00</time>
        <ele>114.0</ele>
      </trkpt>
      <trkpt lat="45.397344" lon="9.07014">
        <time>1970-01-01T00:00:00+00:00</time>
        <ele>113.0</ele>
      </trkpt>
      <trkpt lat="45.397237" lon="9.069836">
        <time>1970-01-01T00:00:00+00:00</time>
        <ele>113.0</ele>
      </trkpt>
      <trkpt lat="45.39804" lon="9.069103">
        <time>1970-01-01T00:00:00+00:00</time>
        <ele>112.0</ele>
      </trkpt>
      <trkpt lat="45.400226" lon="9.067874">
        <time>1970-01-01T00:00:00+00:00</time>
        <ele>115.0</ele>
      </trkpt>
      <trkpt lat="45.400527" lon="9.067656">
        <time>1970-01-01T00:00:00+00:00</time>
        <ele>114.0</ele>
      </trkpt>
      <trkpt lat="45.400915" lon="9.067191">
        <time>1970-01-01T00:00:00+00:00</time>
        <ele>111.0</ele>
      </trkpt>
      <trkpt lat="45.401544" lon="9.066618">
        <time>1970-01-01T00:00:00+00:00</time>
        <ele>111.0</ele>
      </trkpt>
      <trkpt lat="45.402693" lon="9.065918">
        <time>1970-01-01T00:00:00+00:00</time>
        <ele>110.0</ele>
      </trkpt>
      <trkpt lat="45.403379" lon="9.065399">
        <time>1970-01-01T00:00:00+00:00</time>
        <ele>110.0</ele>
      </trkpt>
      <trkpt lat="45.403467" lon="9.065311">
        <time>1970-01-01T00:00:00+00:00</time>
        <ele>111.0</ele>
      </trkpt>
      <trkpt lat="45.403808" lon="9.065122">
        <time>1970-01-01T00:00:00+00:00</time>
        <ele>112.0</ele>
      </trkpt>
      <trkpt lat="45.404155" lon="9.064979">
        <time>1970-01-01T00:00:00+00:00</time>
        <ele>110.0</ele>
      </trkpt>
      <trkpt lat="45.405037" lon="9.064284">
        <time>1970-01-01T00:00:00+00:00</time>
        <ele>110.0</ele>
      </trkpt>
      <trkpt lat="45.405347" lon="9.063491">
        <time>1970-01-01T00:00:00+00:00</time>
        <ele>114.0</ele>
      </trkpt>
      <trkpt lat="45.405506" lon="9.062662">
        <time>1970-01-01T00:00:00+00:00</time>
        <ele>113.0</ele>
      </trkpt>
      <trkpt lat="45.405541" lon="9.062531">
        <time>1970-01-01T00:00:00+00:00</time>
        <ele>113.0</ele>
      </trkpt>
      <trkpt lat="45.40562" lon="9.062361">
        <time>1970-01-01T00:00:00+00:00</time>
        <ele>113.0</ele>
      </trkpt>
      <trkpt lat="45.405775" lon="9.06221">
        <time>1970-01-01T00:00:00+00:00</time>
        <ele>112.0</ele>
      </trkpt>
      <trkpt lat="45.405959" lon="9.062077">
        <time>1970-01-01T00:00:00+00:00</time>
        <ele>110.0</ele>
      </trkpt>
      <trkpt lat="45.406153" lon="9.061988">
        <time>1970-01-01T00:00:00+00:00</time>
        <ele>110.0</ele>
      </trkpt>
      <trkpt lat="45.406264" lon="9.061911">
        <time>1970-01-01T00:00:00+00:00</time>
        <ele>111.0</ele>
      </trkpt>
      <trkpt lat="45.406439" lon="9.061624">
        <time>1970-01-01T00:00:00+00:00</time>
        <ele>115.0</ele>
      </trkpt>
      <trkpt lat="45.406529" lon="9.06144">
        <time>1970-01-01T00:00:00+00:00</time>
        <ele>116.0</ele>
      </trkpt>
      <trkpt lat="45.406594" lon="9.061386">
        <time>1970-01-01T00:00:00+00:00</time>
        <ele>116.0</ele>
      </trkpt>
      <trkpt lat="45.406628" lon="9.061298">
        <time>1970-01-01T00:00:00+00:00</time>
        <ele>116.0</ele>
      </trkpt>
      <trkpt lat="45.406664" lon="9.061341">
        <time>1970-01-01T00:00:00+00:00</time>
        <ele>117.0</ele>
      </trkpt>
      <trkpt lat="45.406996" lon="9.061124">
        <time>1970-01-01T00:00:00+00:00</time>
        <ele>113.0</ele>
      </trkpt>
    </trkseg>
  </trk>
</gpx>
